Wind from 290 at 14 knots

Air temperature 16.0° C
Dewpoint 5.0° C

Last reported at 2014-Apr-25 00:00 UTC.
Time now 2014-Apr-25 06:00 UTC

Location: N 34°59' W 003°02'.
View on Google Maps.

See reports from other nearby stations

Tides Stations Pressure Air Temp Water Temp Dewpoint Dewpoint depression Visibility Wind Speed Wind Dir Waves Ship positions

  
sailing weather and tide predictions

NADOR/ARWI weather

date/time (UTC)wind fromknots sea level pressurealtimeterstation pressurevisibilityair tempwater tempwave heightnotes
2014-Apr-25 00:00 290 14 16.0
2014-Apr-24 21:00 14.0
2014-Apr-24 20:00 310 10 16.0
2014-Apr-24 19:00 330 8 17.0
2014-Apr-24 18:00 330 13 5.418.0
2014-Apr-24 17:00 340 18 5.419.0
2014-Apr-24 16:00 330 17 5.421.0
2014-Apr-24 15:00 340 14 23.0
2014-Apr-24 14:00 320 14 23.0
2014-Apr-24 13:00 340 11 23.0
2014-Apr-24 12:00 330 5 22.0
2014-Apr-24 11:00 340 11 21.0
2014-Apr-24 10:00 310 4 21.0
2014-Apr-24 09:00 280 6 20.0
2014-Apr-24 08:00 280 5 17.0
2014-Apr-24 07:00 240 4 13.0
2014-Apr-24 06:00 230 4 8.0
2014-Apr-24 00:00 12.0
2014-Apr-23 21:00 190 1 14.0
2014-Apr-23 20:00 16.0
2014-Apr-23 19:00 050 3 18.0
2014-Apr-23 18:00 060 7 20.0
2014-Apr-23 17:00 050 9 21.0
2014-Apr-23 16:00 060 10 22.0
2014-Apr-23 15:00 050 12 5.423.0
2014-Apr-23 14:00 060 12 5.424.0
2014-Apr-23 13:00 050 13 5.424.0
2014-Apr-23 12:00 360 5 25.0
2014-Apr-23 11:00 190 3 23.0
2014-Apr-23 10:00 270 3 22.0
2014-Apr-23 09:00 110 2 21.0
2014-Apr-23 08:00 17.0
2014-Apr-23 07:00 12.0
2014-Apr-23 06:00 230 3 9.0